Location: Clifton Park
(41.4873°N, 81.8024°W)
Time: 17:02:24
(UTC+00:00)

Cosmos 1697 Rocket - Pass Details

Date: 21 January 2020
Orbit: 833 x 843 km, 71.0° (Epoch: 19 February)

Event Time Altitude Azimuth Distance (km) Brightness Sun altitude
Exits shadow 09:50:27 44° 51° (NE) 1,148 3.6 -33.1°
Drops below altitude 10° 09:54:21 10° 30° (NNE) 2,449 5.4 -32.3°
Sets 09:56:49 0° 28° (NNE) 3,388 6.2 -31.9°
